TimeCAT,TemperatureF,Dew PointF,Humidity,Sea Level PressureIn,VisibilityMPH,Wind Direction,Wind SpeedMPH,Gust SpeedMPH,PrecipitationIn,Events,Conditions,WindDirDegrees,DateUTC
12:00 AM,71.6,64.4,78,29.98,6.2,NW,4.6,-,N/A,,Partly Cloudy,310,2012-12-30 22:00:00
1:00 AM,71.6,64.4,78,29.98,6.2,SE,3.5,-,N/A,,Scattered Clouds,140,2012-12-30 23:00:00
2:00 AM,69.8,64.4,83,29.98,6.2,WNW,2.3,-,N/A,,Scattered Clouds,300,2012-12-31 00:00:00
3:00 AM,68.0,64.4,88,29.95,-9999.0,NW,3.5,-,N/A,,Clear,320,2012-12-31 01:00:00
4:00 AM,68.0,64.4,88,29.95,-9999.0,NNW,2.3,-,N/A,,Clear,330,2012-12-31 02:00:00
5:00 AM,69.8,66.2,88,29.98,6.2,SW,3.5,-,N/A,,Scattered Clouds,230,2012-12-31 03:00:00
6:00 AM,69.8,64.4,83,30.01,-9999.0,SE,9.2,-,N/A,,Clear,140,2012-12-31 04:00:00
7:00 AM,71.6,66.2,83,30.04,6.2,SSE,6.9,-,N/A,,Mostly Cloudy,150,2012-12-31 05:00:00
8:00 AM,70,66,83,,6,SSE,5.8,,,,Overcast,150,2012-12-31 06:00:00
8:00 AM,69.8,66.2,88,30.04,6.2,SSE,5.8,-,N/A,,Mostly Cloudy,150,2012-12-31 06:00:00
9:00 AM,69.8,68.0,94,30.04,6.2,SE,3.5,-,N/A,,Light Drizzle,140,2012-12-31 07:00:00
10:00 AM,71.6,68.0,88,30.04,6.2,SE,6.9,-,N/A,,Scattered Clouds,130,2012-12-31 08:00:00
11:00 AM,75.2,68.0,78,30.04,6.2,SSE,5.8,-,N/A,,Scattered Clouds,150,2012-12-31 09:00:00
12:00 PM,78.8,68.0,69,30.01,6.2,NE,3.5,-,N/A,,Scattered Clouds,50,2012-12-31 10:00:00
1:00 PM,80.6,66.2,61,29.98,6.2,NW,4.6,-,N/A,,Partly Cloudy,320,2012-12-31 11:00:00
2:00 PM,82.4,66.2,58,29.95,6.2,NW,6.9,-,N/A,,Partly Cloudy,320,2012-12-31 12:00:00
3:00 PM,84.2,68.0,58,29.89,6.2,Variable,6.9,-,N/A,,Partly Cloudy,0,2012-12-31 13:00:00
4:00 PM,87.8,64.4,46,29.86,6.2,WNW,5.8,-,N/A,,Partly Cloudy,290,2012-12-31 14:00:00
5:00 PM,86.0,64.4,48,29.86,6.2,NW,4.6,-,N/A,,Partly Cloudy,320,2012-12-31 15:00:00
6:00 PM,82.4,66.2,58,29.86,6.2,North,12.7,-,N/A,,Partly Cloudy,10,2012-12-31 16:00:00
7:00 PM,78.8,66.2,65,29.89,6.2,NNE,5.8,-,N/A,,Partly Cloudy,20,2012-12-31 17:00:00
8:00 PM,77.0,69.8,78,29.89,6.2,NW,4.6,-,N/A,,Partly Cloudy,320,2012-12-31 18:00:00
9:00 PM,75.2,68.0,78,29.92,6.2,North,2.3,-,N/A,,Partly Cloudy,360,2012-12-31 19:00:00
10:00 PM,75.2,68.0,78,29.95,6.2,NNW,4.6,-,N/A,,Partly Cloudy,330,2012-12-31 20:00:00
11:00 PM,77.0,68.0,74,29.98,6.2,NW,4.6,-,N/A,,Partly Cloudy,310,2012-12-31 21:00:00